GFSNE_con_sbcape_159.txt.gz
CAPE
20 18 13 15 48 21 5 333 613 391 376 469 258 153 175 271 400 1 2 1 1 1 0 0 0 0 0 0 0 0 0 0 0 0 0 2 5 23
16 22 14 12 45 51 43 118 0 170 605 631 624 479 259 142 134 20 2 0 1 1 1 0 0 0 0 0 0 0 0 0 0 0 0 0 0 1
10 5 15 7 80 85 225 145 4 73 482 1095 882 650 650 508 75 5 1 2 0 1 1 1 1 1 1 1 0 0 0 0 0 0 0 0 0 0
12 2 6 56 127 160 238 135 22 107 100 834 277 442 539 601 338 20 1 0 5 1 1 1 1 1 1 1 1 1 1 1 1 1 1 0 0 0
19 13 9 11 220 362 443 346 102 20 0 318 233 189 153 297 193 14 3 1 0 0 1 0 1 1 1 1 1 1 1 1 1 1 1 1 0 0
21 19 8 5 122 261 378 214 119 25 1 219 575 29 7 2 4 2 1 0 0 1 0 0 0 1 1 1 1 1 1 1 1 0 0 0 0 0
11 13 7 3 0 83 152 286 146 58 49 45 243 189 12 1 0 1 2 0 1 1 2 2 2 2 2 0 0 0 0 0 0 0 0 0 0 0
12 17 11 4 0 0 0 0 58 67 63 145 204 305 118 14 4 0 0 0 1 0 0 0 1 1 1 1 0 0 0 0 0 0 0 0 0 0
14 16 10 10 2 19 5 0 0 0 0 45 66 300 216 91 60 33 2 4 38 1 0 0 1 0 1 2 1 1 1 1 1 1 1 1 1 0
15 13 11 12 11 3 53 109 5 24 0 0 430 562 303 157 377 250 83 1 0 0 0 0 1 2 0 1 3 2 2 2 2 3 3 2 2 1
11 11 11 7 6 3 5 37 32 5 0 0 0 30 155 95 200 164 0 0 1 1 0 0 2 2 3 1 0 3 3 2 2 3 3 3 2 2
13 13 4 3 2 1 3 2 0 0 1 0 1 1 0 0 0 87 1 0 0 1 0 0 0 1 2 1 3 3 3 2 3 4 5 5 2 4
20 15 4 7 6 3 1 2 0 0 1 0 0 1 1 1 0 0 0 0 0 0 0 0 0 1 0 2 2 3 3 0 0 0 4 4 3 3
13 24 10 12 8 5 1 0 1 0 0 0 0 0 1 1 0 1 1 1 0 0 0 0 0 0 1 1 0 1 1 0 0 0 1 3 2 1
9 16 8 10 6 2 3 0 1 0 0 0 0 0 0 0 0 0 0 0 2 0 0 0 0 0 0 0 1 1 0 2 1 1 1 1 2 2
4 10 8 3 0 1 1 1 1 0 0 0 0 0 0 0 0 0 0 0 4 3 0 0 0 0 1 0 0 0 0 0 1 1 2 2 1 7
4 1 2 1 1 1 0 1 1 0 0 0 0 0 0 0 0 0 0 0 0 2 1 0 0 0 0 0 0 0 0 0 2 3 2 5 6 7
1 1 1 1 0 1 0 0 0 0 0 0 0 0 0 0 0 0 0 1 0 0 2 3 0 0 0 0 0 0 0 0 2 2 1 2 6 12
2 2 1 2 1 1 2 0 0 1 0 0 0 0 0 0 0 0 0 0 0 4 0 0 0 0 0 0 1 0 0 0 1 3 4 6 10 12
5 3 2 2 2 2 1 1 1 2 0 0 0 0 0 0 0 0 0 0 2 0 0 0 0 0 0 0 0 1 0 6 12 20 20 8 10 0
5 3 3 3 3 2 2 2 1 2 3 3 1 0 0 0 0 0 0 0 0 0 0 0 0 0 0 0 0 0 2 2 5 8 10 12 6 9
7 6 5 3 3 3 3 5 3 1 1 3 2 2 3 2 1 1 1 0 0 0 0 0 1 1 4 1 4 4 8 9 4 0 0 1 8 12
13 8 7 5 4 3 3 3 4 3 1 1 3 3 3 4 4 4 4 4 3 3 2 2 3 3 4 1 3 8 12 11 11 8 7 0 0 0

GFSNE_con_sbcape_162.txt.gz
CAPE
18 23 20 24 21 25 47 103 95 30 21 445 1002 1232 841 809 969 790 491 0 1 1 0 0 0 0 0 0 0 0 0 0 0 0 0 1 3 6
19 17 26 17 10 24 29 61 139 125 26 187 579 1408 1080 745 777 1012 591 120 1 1 1 1 0 0 0 0 0 0 0 0 0 0 0 0 0 0
9 16 15 19 14 4 16 42 95 142 127 0 163 462 1552 1112 539 392 499 414 13 1 1 1 1 1 0 1 0 0 0 0 0 0 0 0 0 0
13 13 14 15 17 14 19 93 112 104 158 67 1 2 721 1249 468 366 299 181 324 0 1 1 1 1 1 1 1 1 1 0 0 0 0 0 0 0
21 16 13 22 26 23 16 27 96 136 241 165 18 125 173 1424 819 374 165 131 1 1 0 1 1 1 1 1 1 1 1 1 1 1 0 0 0 0
22 26 25 21 26 30 24 13 78 349 332 210 99 35 149 1228 971 582 60 0 0 0 0 0 0 1 1 1 1 1 1 1 1 1 1 1 1 1
13 14 20 15 14 6 24 10 11 176 310 250 148 123 0 12 294 172 18 0 1 1 1 1 2 0 0 1 0 1 1 1 1 1 1 1 0 0
24 21 18 14 15 4 0 0 0 1 470 223 436 248 15 92 326 194 28 0 0 0 0 0 1 2 1 1 1 1 1 1 1 0 0 0 0 0
27 34 15 13 14 26 10 0 1 0 0 234 410 282 185 176 297 291 9 0 1 1 0 0 1 0 2 1 0 0 0 0 0 0 0 0 0 0
30 14 20 20 20 21 23 12 4 6 32 0 3 433 404 396 289 314 90 2 1 0 0 0 1 1 0 1 2 1 1 1 1 2 1 1 1 1
14 14 14 19 17 18 22 21 9 2 1 0 2 27 0 69 335 311 20 0 1 1 5 1 1 1 2 0 1 3 2 2 2 4 4 3 3 2
20 17 13 25 14 16 21 16 8 2 2 1 0 0 0 0 1 348 0 0 0 1 0 1 0 1 2 2 1 0 1 1 3 5 5 4 3 2
41 41 41 16 20 18 12 11 8 7 0 0 4 1 0 0 1 102 60 205 0 1 0 0 0 0 3 6 5 1 0 0 2 2 5 4 4 2
34 45 40 16 13 12 15 13 5 0 3 1 0 0 0 0 1 1 1 179 15 9 0 0 0 0 3 7 4 3 1 1 0 0 0 3 3 2
30 23 15 10 12 15 10 8 4 4 0 0 0 0 0 0 1 0 0 0 0 1 0 0 0 0 2 6 5 2 2 3 1 3 3 3 1 1
14 24 17 15 6 10 18 2 1 4 1 0 0 0 0 0 0 0 0 0 1 2 0 0 0 0 0 0 0 3 2 1 3 2 1 0 1 2
15 15 9 11 12 19 21 1 1 1 1 2 0 0 0 0 0 0 0 0 0 1 0 0 0 0 0 0 0 0 1 3 4 8 1 1 1 2
13 12 7 9 10 13 11 3 2 0 0 1 1 1 0 0 0 0 0 0 0 0 0 6 0 0 0 0 0 1 1 2 2 4 1 0 3 7
15 13 8 9 6 7 8 8 5 2 2 2 2 1 1 0 0 0 0 0 0 0 1 0 0 0 0 0 0 0 0 1 2 1 1 1 3 6
16 16 10 10 8 10 9 8 7 3 2 4 2 1 1 1 0 0 0 0 0 0 0 0 1 0 0 0 0 2 0 0 0 0 1 1 1 1
28 22 16 12 9 8 8 6 5 4 4 6 10 9 6 6 3 0 0 0 0 0 0 2 1 0 0 0 0 0 1 1 0 0 1 2 9 13
33 31 25 17 14 8 7 8 7 5 5 6 9 11 13 11 6 4 2 0 0 0 0 0 0 0 0 0 0 0 1 1 2 1 0 1 12 13
33 32 39 24 19 13 10 7 8 8 5 4 5 7 9 11 12 10 9 5 0 4 3 0 0 1 0 0 0 2 2 2 3 3 5 0 0 0

GFSNE_con_sbcape_168.txt.gz
CAPE
10 6 18 15 13 9 12 22 22 10 9 4 18 8 0 2 139 468 632 5 1 0 0 0 0 0 0 0 0 0 0 0 0 0 0 1 15 12
9 12 10 6 11 10 13 3 18 20 14 20 3 12 9 0 0 57 424 525 1 0 0 0 0 0 0 0 0 0 0 0 0 0 0 0 0 0
8 14 14 11 10 0 1 3 1 9 19 13 14 11 12 18 10 9 33 444 321 0 0 0 0 0 0 0 0 0 0 0 0 0 0 0 0 0
10 11 15 16 9 3 1 8 11 14 14 12 11 17 0 1 0 4 15 0 113 83 0 0 0 0 0 0 0 0 0 0 0 0 0 0 0 0
12 11 10 14 11 13 22 25 30 31 14 12 13 18 23 2 9 3 2 18 49 182 1 0 0 0 0 0 0 0 0 0 0 0 0 0 0 0
10 15 17 20 22 21 21 16 23 25 27 20 13 23 28 16 9 23 16 10 15 0 0 0 0 0 0 0 0 0 0 1 1 1 1 0 0 0
11 14 19 15 26 22 29 29 30 24 24 24 5 17 22 25 18 15 26 17 7 0 0 0 0 0 0 0 0 0 0 0 0 0 1 1 1 1
14 10 8 8 19 22 18 4 4 13 11 13 13 3 1 17 16 17 7 20 17 0 0 0 0 0 0 0 0 0 1 0 0 0 1 1 1 1
14 10 11 15 24 24 8 7 4 10 3 9 13 4 2 1 15 11 10 9 20 1 0 0 0 0 0 0 1 1 0 0 0 1 1 1 1 1
9 10 19 12 16 17 17 14 15 17 15 20 15 20 6 9 35 18 7 2 0 1 0 0 0 0 0 1 2 1 1 0 0 0 1 1 1 1
5 12 10 16 18 31 21 18 9 8 14 12 20 15 6 0 1 24 5 0 1 0 0 0 0 0 2 1 1 0 1 0 0 0 1 1 0 0
3 7 6 9 16 20 18 15 9 4 10 6 7 5 5 4 5 5 13 3 6 1 0 0 0 0 3 5 1 0 0 1 0 0 0 1 2 1
7 3 1 18 22 20 18 12 15 10 5 12 9 3 3 1 3 2 3 15 6 4 0 0 0 0 0 0 0 0 0 0 0 0 2 2 2 0
1 0 1 10 10 12 7 17 17 11 8 8 5 4 3 2 7 6 2 12 27 9 0 0 0 0 0 0 2 1 0 0 0 0 0 1 1 1
0 4 9 6 5 5 10 14 4 1 3 3 2 2 6 1 1 6 0 4 0 0 0 0 0 0 0 0 0 0 0 0 0 0 0 0 0 0
0 0 0 11 0 0 0 0 0 1 1 1 2 2 4 3 2 1 7 0 0 1 1 0 0 0 0 0 0 5 3 1 0 0 0 0 0 0
0 0 0 0 0 0 0 0 0 0 0 0 0 2 3 2 1 7 6 1 0 0 1 0 1 0 0 0 0 0 1 2 0 1 0 1 0 0
0 0 0 0 0 0 0 0 0 0 0 0 0 1 1 1 0 2 0 0 0 0 0 0 0 0 0 0 0 0 0 0 0 0 0 0 0 0
0 0 1 0 0 0 0 0 0 0 0 0 0 0 0 0 1 0 1 0 0 0 0 0 0 0 0 0 0 0 0 0 0 0 0 0 0 0
2 2 1 2 1 0 1 0 0 0 0 0 0 0 0 0 0 0 0 0 0 0 0 0 0 0 0 0 0 0 0 0 0 0 0 0 0 0
1 1 1 2 2 3 1 0 0 0 0 0 0 0 0 0 0 0 0 0 0 0 0 0 0 0 0 0 0 0 0 0 0 0 0 0 0 0
1 2 2 1 2 2 1 0 0 0 0 0 0 0 0 0 0 0 0 0 0 0 0 0 0 0 0 0 0 0 0 0 0 0 0 0 0 0
1 1 0 1 3 3 3 2 1 0 0 0 0 0 0 0 0 0 0 0 0 0 0 0 0 0 0 0 0 0 0 0 0 0 0 0 0 0

GFSNE_con_sbcape_171.txt.gz
CAPE
14 13 6 4 3 6 8 5 14 14 0 13 19 5 8 7 3 2 2 0 0 1 0 0 0 19 0 0 0 0 0 0 0 0 0 0 7 23
2 2 7 10 11 13 13 9 13 20 14 12 11 6 9 3 4 1 0 0 0 0 1 1 0 0 0 0 0 0 0 0 0 0 0 0 1 6
0 3 11 8 7 8 10 8 8 9 13 5 5 1 1 4 5 10 6 1 2 0 1 1 1 0 0 0 0 0 0 0 0 0 0 0 0 0
1 1 8 15 11 13 18 22 27 31 29 21 20 12 2 0 2 10 22 10 4 0 0 1 1 1 1 1 1 0 0 0 0 0 0 0 0 0
0 9 13 18 18 15 17 18 21 31 24 27 21 21 12 1 0 10 6 7 0 0 0 1 0 0 1 1 0 0 0 0 0 0 0 0 0 0
2 15 19 11 13 14 27 20 29 17 12 12 13 19 17 6 5 3 9 15 2 6 6 0 0 0 0 1 0 0 0 0 0 0 0 0 0 0
6 16 3 9 10 12 20 18 10 7 5 4 4 6 19 15 4 2 1 2 4 3 5 7 0 0 0 0 0 0 0 0 0 0 0 0 0 0
9 1 1 14 10 11 7 13 13 14 14 17 11 15 15 17 12 9 0 0 0 0 13 7 0 0 0 0 0 0 1 0 0 0 0 0 0 1
4 4 6 13 11 19 15 14 8 10 6 18 18 17 23 27 37 23 13 2 1 8 15 3 0 0 0 0 0 1 1 0 0 0 0 1 1 1
4 4 14 10 13 16 23 12 11 8 13 19 13 8 8 8 7 6 4 5 6 7 4 4 2 0 1 0 0 1 1 0 0 0 0 0 1 1
4 3 11 11 21 27 21 17 6 7 8 10 11 12 13 10 10 17 3 0 0 1 4 2 3 0 0 0 0 0 0 0 0 0 0 0 0 0
0 2 4 12 10 10 14 9 6 9 7 6 6 4 5 8 7 16 16 2 0 0 0 8 0 0 1 0 0 1 1 1 0 0 0 0 0 0
0 0 0 16 11 11 10 9 12 5 6 7 6 2 2 2 4 11 22 19 5 0 0 1 0 0 0 0 0 0 0 0 0 0 0 0 0 0
0 0 0 12 10 6 5 9 8 7 5 4 2 0 1 1 1 2 6 7 11 26 1 2 4 0 0 0 0 0 0 0 0 0 0 0 0 0
0 1 7 6 5 1 4 6 2 1 1 0 1 1 2 1 3 4 2 4 0 0 8 1 9 2 0 0 0 0 0 0 0 0 0 0 0 0
0 0 0 11 0 0 0 0 0 0 0 0 0 0 0 1 4 6 6 6 4 0 0 4 9 15 0 0 0 0 0 0 0 0 0 0 2 0
0 0 0 0 0 0 0 0 0 0 0 0 0 0 0 2 3 5 4 5 6 5 4 1 3 3 0 0 0 0 0 0 0 0 0 0 1 0
0 0 0 0 0 0 0 0 0 0 0 0 0 0 0 0 1 2 1 1 0 4 9 0 0 0 0 0 0 0 0 0 0 0 0 0 1 0
0 0 0 0 0 0 0 0 0 0 0 0 0 0 0 0 0 0 0 1 0 4 0 0 0 0 0 0 0 0 0 0 0 0 0 0 0 0
0 0 0 0 0 0 0 0 0 0 0 0 0 0 0 0 0 0 0 0 0 0 0 0 0 0 0 0 0 0 0 0 0 0 0 0 0 0
0 0 0 0 0 0 0 0 0 0 0 0 0 0 0 0 0 0 0 0 0 0 0 0 0 0 0 0 0 0 0 0 0 0 0 0 0 0
0 1 0 1 0 0 0 0 0 0 0 0 0 0 0 0 0 0 0 0 0 0 0 0 0 0 0 0 0 0 0 0 0 0 0 0 0 0
0 0 0 0 1 0 0 0 0 0 0 0 0 0 0 0 0 0 0 0 0 0 0 0 0 0 0 0 0 0 0 0 0 0 0 0 0 0

GFSNE_con_sbcape_174.txt.gz
CAPE
0 0 0 0 5 1 13 17 19 14 10 10 16 1 5 2 1 3 1 0 2 0 0 0 0 0 1 0 0 3 26 36 6 0 0 0 5 21
0 0 0 2 2 6 9 10 13 15 16 13 12 8 6 23 10 2 1 13 0 0 0 0 0 0 0 0 0 0 0 12 0 0 0 0 0 0
0 0 0 6 11 16 20 24 26 28 22 14 16 10 7 6 7 3 4 0 1 0 0 0 0 0 0 1 1 0 0 31 0 0 0 0 0 0
0 0 5 15 9 2 6 16 22 26 27 22 18 16 12 1 11 11 8 0 3 0 0 0 0 0 0 0 1 1 1 0 0 0 0 0 0 0
0 0 15 0 0 4 24 19 14 5 4 6 3 5 5 3 4 4 3 1 5 6 0 0 0 0 0 0 1 1 1 0 1 0 0 0 0 0
4 11 0 0 5 8 6 15 8 8 7 6 5 10 12 5 5 13 7 6 5 4 5 2 0 0 0 0 0 0 1 1 1 1 0 0 0 0
1 2 2 6 13 4 19 8 15 20 20 19 15 13 9 8 3 4 13 7 1 4 1 0 3 2 3 0 0 0 1 1 0 0 0 0 0 0
4 2 2 9 8 9 14 18 10 13 19 19 14 14 10 19 14 19 10 12 6 0 12 0 2 6 6 12 0 1 1 1 0 1 0 0 0 0
4 4 3 4 6 12 20 13 8 7 8 13 20 16 13 8 10 10 8 7 4 1 9 3 0 0 0 6 1 1 1 0 0 0 0 0 0 0
4 2 7 10 8 21 21 15 5 3 9 17 16 14 17 17 22 26 26 21 10 6 4 1 0 2 0 2 0 0 0 0 0 0 0 0 0 0
1 1 9 8 19 25 16 9 5 11 5 4 8 10 9 9 9 15 9 13 6 4 2 8 0 0 0 0 0 0 0 0 0 0 0 0 0 0
0 1 5 7 9 11 13 6 7 8 3 5 4 2 3 4 6 14 16 10 10 9 0 1 0 1 0 0 0 0 0 1 0 0 0 0 0 0
0 0 0 7 9 9 10 4 7 1 7 7 7 2 2 2 2 4 12 15 8 7 1 11 5 0 10 5 0 0 0 0 0 0 0 0 0 0
0 0 0 6 5 4 4 9 6 5 7 4 1 0 1 1 1 2 3 3 8 13 1 1 9 13 6 1 8 0 0 0 0 0 0 0 0 0
0 0 3 2 2 0 3 4 0 0 0 0 1 1 1 1 5 0 0 0 4 5 11 2 7 6 9 11 5 0 0 0 0 0 0 0 0 0
0 0 0 7 0 0 0 0 0 0 0 0 0 0 0 0 2 1 3 3 3 0 0 0 0 0 3 7 14 4 0 0 0 0 0 0 0 0
0 0 0 0 0 0 0 0 0 0 0 0 0 0 0 1 0 0 4 4 6 7 1 2 3 0 0 5 4 12 0 0 0 0 0 0 0 0
0 0 0 0 0 0 0 0 0 0 0 0 0 0 0 0 0 0 3 3 3 3 4 4 5 0 2 8 18 13 0 0 0 0 0 0 0 0
0 0 0 0 0 0 0 0 0 0 0 0 0 0 0 0 0 0 0 2 1 3 4 3 5 0 2 2 3 0 0 0 0 0 0 0 0 0
0 0 0 0 0 0 0 0 0 0 0 0 0 0 0 0 0 0 0 0 0 1 2 0 2 2 4 1 0 0 0 0 0 0 0 0 0 0
0 0 0 0 0 0 0 0 0 0 0 0 0 0 0 0 0 0 0 0 0 0 0 0 0 0 0 0 0 0 0 0 0 0 0 0 0 0
0 0 0 0 0 0 0 0 0 0 0 0 0 0 0 0 0 0 0 0 0 0 0 0 0 0 0 0 0 0 0 0 0 0 0 0 0 0
0 0 0 0 0 0 0 0 0 0 0 0 0 0 0 0 0 0 0 0 0 0 0 0 0 0 0 0 0 0 0 0 0 0 0 0 0 0